MONITOR-2 (RS39S)

Last updated on Fri Dec 19 2025 00:03:11 GMT+0000 (Coordinated Universal Time)

1 57184U 23091U 25352.62566120 .00004834 00000+0 24908-3 0 9999 2 57184 97.5364 47.0618 0012352 27.2103 332.9775 15.16795208136566
UTC large
Height (km)
Speed (km/s)
/
Latitude / Longitude
Inclination (degrees)
Orbital Period (minutes)
Azimuth
Elevation
Range (km)
Doppler Factor

Next 0 passes for location: London (51.5072 / 0.1276)

Sorry there are no passes over London.